Hourly Weather Roundup
Issued by NWS Central Illinois

Home | Current Version | Previous Version | Text Only | Print | Product List | Glossary On
Versions: 1 2 3 4 5 6 7 8 9 10 11 12 13 14 15 16 17 18 19 20 21 22 23 24 25 26 27 28 29 30 31 32 33 34 35 36 37 38 39 40 41 42 43 44 45 46 47 48 49 50
000
NZUS43 KILX 060710
HWRILX

AREA WEATHER ROUNDUP
NATIONAL WEATHER SERVICE, LINCOLN IL
200 AM CDT MON JUL 06 2015


CITY           SKY/WX    TMP DP  RH WIND       PRES   REMARKS
BLOOMINGTON    CLEAR     67  65  93 S7        30.03F
CHAMPAIGN      CLEAR     66  64  93 S5        30.03S FOG
DANVILLE       CLEAR     67  66  96 S3        30.01R FOG
DECATUR        CLEAR     69  64  84 S6        30.02S
EFFINGHAM      CLEAR     68  65  90 CALM      30.04S FOG
FLORA          CLEAR     67  66  97 CALM      30.03S FOG
GALESBURG      CLEAR     68  65  92 SE7       29.97F FOG
JACKSONVILLE   CLEAR     74  68  83 S7        29.99S
LACON          CLEAR     69  63  82 SE3       29.99S
LAWRENCEVILLE  CLEAR     70  68  93 S3        30.03F FOG
LITCHFIELD     CLEAR     67  64  89 S3        30.02S FOG
$$


CITY           SKY/WX    TMP DP  RH WIND       PRES   REMARKS
LINCOLN        CLEAR     67  63  89 S3        30.01F FOG
MACOMB         CLEAR     68  67  96 S3        29.99F FOG
MATTOON          N/A     69  67  93 S3        30.02S FOG
MT CARMEL AP   CLEAR     70  66  88 CALM      30.03S FOG
OLNEY-NOBLE AP   N/A     68  68 100 CALM      30.03S
PARIS            N/A     67  66  97 CALM      30.05R FOG
PEORIA         CLEAR     72  64  76 S7        30.00S
PONTIAC        CLEAR     66  65  96 CALM      30.02S FOG
RANTOUL        CLEAR     68  66  93 CALM      30.03S FOG
ROBINSON       CLEAR     69  68  94 S3        30.03F
SPRINGFIELD    CLEAR     73  65  75 S10       30.00F
TAYLORVILLE    CLEAR     66  63  88 S5        30.02S
$$

...REGIONAL REPORTS...


CITY           SKY/WX    TMP DP  RH WIND       PRES   REMARKS
CHICAGO O`HARE CLEAR     69  62  78 S7        29.99S
KANKAKEE       CLEAR     68  65  88 S5        30.02F
MOLINE         CLEAR     69  65  86 VRB3      29.95F FOG
MOUNT STERLING NOT AVBL
MOUNT VERNON   CLEAR     64  61  88 CALM      30.03S
PITTSFIELD     CLEAR     71  67  89 S3        30.00S FOG
QUINCY         CLEAR     72  68  87 S8        29.96F FOG
ROCKFORD       PTCLDY    66  62  87 S7        30.00S
$$


CITY           SKY/WX    TMP DP  RH WIND       PRES   REMARKS
BURLINGTON     PTCLDY    73  69  87 S10       29.94F FOG
CEDAR RAPIDS   CLEAR     71  69  93 S9        29.91S FOG
DES MOINES     CLOUDY    77  71  82 S12       29.85S
KIRKSVILLE     CLEAR     74  69  85 S10       29.94F
OTTUMWA        PTCLDY    73  69  87 S10       29.89F
ST LOUIS       PTCLDY    77  68  73 S6        30.01R
$$


CITY           SKY/WX    TMP DP  RH WIND       PRES   REMARKS
TERRE HAUTE    CLEAR     69  67  93 SE5       30.03F FOG
EVANSVILLE     PTCLDY    72  68  87 CALM      30.03F FOG
INDIANAPOLIS   CLEAR     66  62  87 SE3       30.03F
LAFAYETTE      CLEAR     67  63  87 CALM      30.03S
MADISON        MOCLDY    72  63  73 S9        29.98R
MILWAUKEE      PTCLDY    67  59  75 S3        30.00R
$$





USA.gov is the U.S. government's official web portal to all federal, state and local government web resources and services.